Radiation Dose at Monitoring Post of Fukushima Daini Nuclear Power Station
Date,Time,MP-1(microSv/h),MP-2(microSv/h),MP-3(microSv/h),MP-4(microSv/h),MP-5(microSv/h),MP-6(microSv/h),MP-7(microSv/h),Wind Direction,Wind Velocity(m/s),Rain
2015/09/09,00:00,0.458,0.268,0.471,0.435,0.438,0.213,0.183,north-northwest,7.7,Yes
2015/09/09,00:10,0.457,0.269,0.473,0.429,0.439,0.210,0.182,north-northwest,7.0,Yes
2015/09/09,00:20,0.452,0.266,0.465,0.429,0.431,0.210,0.181,north-northwest,8.3,Yes
2015/09/09,00:30,0.456,0.267,0.470,0.425,0.436,0.208,0.180,north-northwest,8.0,Yes
2015/09/09,00:40,0.451,0.267,0.463,0.428,0.432,0.209,0.182,north-northwest,8.4,Yes
2015/09/09,00:50,0.457,0.268,0.467,0.428,0.437,0.210,0.181,north-northwest,9.0,Yes
2015/09/09,01:00,0.452,0.266,0.464,0.426,0.433,0.208,0.181,north-northwest,8.9,Yes
2015/09/09,01:10,0.456,0.266,0.463,0.424,0.432,0.207,0.180,north-northwest,8.3,Yes
2015/09/09,01:20,0.453,0.266,0.464,0.424,0.433,0.209,0.181,north-northwest,8.1,Yes
2015/09/09,01:30,0.451,0.267,0.461,0.429,0.434,0.210,0.180,north-northwest,8.9,Yes
2015/09/09,01:40,0.453,0.268,0.466,0.424,0.434,0.208,0.181,north-northwest,8.4,Yes
2015/09/09,01:50,0.448,0.264,0.458,0.424,0.431,0.207,0.179,north-northwest,8.5,Yes
2015/09/09,02:00,0.452,0.267,0.458,0.419,0.432,0.206,0.180,north-northwest,8.1,Yes
2015/09/09,02:10,0.449,0.267,0.456,0.425,0.431,0.208,0.180,north-northwest,8.7,Yes
2015/09/09,02:20,0.456,0.269,0.462,0.426,0.436,0.209,0.183,north-northwest,9.0,Yes
2015/09/09,02:30,0.454,0.269,0.464,0.429,0.434,0.208,0.182,north-northwest,7.4,Yes
2015/09/09,02:40,0.459,0.270,0.463,0.429,0.438,0.209,0.183,north-northwest,7.5,Yes
2015/09/09,02:50,0.453,0.267,0.460,0.420,0.430,0.205,0.180,west-southwest,10.7,Yes
2015/09/09,03:00,0.451,0.266,0.449,0.420,0.431,0.207,0.181,west-northwest,4.8,Yes
2015/09/09,03:10,0.453,0.267,0.456,0.421,0.432,0.208,0.181,north,4.5,Yes
2015/09/09,03:20,0.451,0.268,0.457,0.430,0.435,0.209,0.184,north-northeast,5.3,Yes
2015/09/09,03:30,0.461,0.271,0.467,0.431,0.440,0.209,0.183,north,5.0,Yes
2015/09/09,03:40,0.458,0.268,0.468,0.436,0.434,0.208,0.184,north-northwest,4.5,Yes
2015/09/09,03:50,0.453,0.268,0.466,0.433,0.435,0.208,0.181,northwest,5.5,Yes
2015/09/09,04:00,0.448,0.262,0.456,0.413,0.422,0.203,0.177,northwest,5.9,Yes
2015/09/09,04:10,0.440,0.262,0.435,0.410,0.423,0.202,0.175,west,12.4,Yes
2015/09/09,04:20,0.450,0.265,0.446,0.412,0.421,0.203,0.177,north-northwest,4.7,Yes
2015/09/09,04:30,0.451,0.267,0.454,0.429,0.430,0.205,0.181,northeast,3.0,Yes
2015/09/09,04:40,0.457,0.268,0.463,0.430,0.435,0.208,0.181,east-northeast,7.2,Yes
2015/09/09,04:50,0.458,0.266,0.467,0.433,0.431,0.207,0.183,east-northeast,9.4,Yes
2015/09/09,05:00,0.455,0.269,0.467,0.437,0.437,0.209,0.181,east-northeast,10.1,Yes
2015/09/09,05:10,0.458,0.266,0.470,0.433,0.433,0.207,0.182,east-northeast,13.6,Yes
2015/09/09,05:20,0.449,0.266,0.467,0.438,0.435,0.207,0.180,northeast,11.2,Yes
2015/09/09,05:30,0.454,0.267,0.471,0.434,0.439,0.208,0.180,east-northeast,12.3,Yes
2015/09/09,05:40,0.459,0.265,0.473,0.435,0.433,0.207,0.182,northeast,11.2,Yes
2015/09/09,05:50,0.454,0.269,0.469,0.439,0.438,0.208,0.180,northeast,12.0,No
2015/09/09,06:00,0.460,0.267,0.475,0.435,0.436,0.208,0.182,northeast,10.3,No
2015/09/09,06:10,0.456,0.265,0.473,0.440,0.436,0.208,0.182,northeast,11.2,No
2015/09/09,06:20,0.456,0.267,0.473,0.439,0.440,0.209,0.181,northeast,11.2,Yes
2015/09/09,06:30,0.460,0.266,0.479,0.437,0.435,0.209,0.183,northeast,11.0,Yes
2015/09/09,06:40,0.458,0.267,0.474,0.442,0.440,0.209,0.181,northeast,12.4,Yes
2015/09/09,06:50,0.460,0.267,0.477,0.438,0.438,0.209,0.182,northeast,12.3,No
2015/09/09,07:00,0.463,0.266,0.479,0.439,0.434,0.209,0.181,northeast,12.4,No
2015/09/09,07:10,0.457,0.268,0.471,0.443,0.442,0.211,0.182,northeast,10.9,Yes
2015/09/09,07:20,0.464,0.265,0.476,0.438,0.437,0.210,0.181,northeast,14.1,No
2015/09/09,07:30,0.461,0.268,0.477,0.441,0.439,0.209,0.181,northeast,11.8,Yes
2015/09/09,07:40,0.459,0.267,0.474,0.441,0.439,0.210,0.183,northeast,10.5,Yes
2015/09/09,07:50,0.466,0.265,0.480,0.439,0.434,0.210,0.183,northeast,11.2,Yes
2015/09/09,08:00,0.461,0.270,0.478,0.443,0.441,0.211,0.182,northeast,11.3,Yes
2015/09/09,08:10,0.460,0.265,0.477,0.441,0.439,0.211,0.183,northeast,11.5,Yes
2015/09/09,08:20,0.464,0.267,0.482,0.438,0.437,0.212,0.181,northeast,12.3,Yes
2015/09/09,08:30,0.460,0.269,0.477,0.443,0.443,0.211,0.183,northeast,12.2,Yes
2015/09/09,08:40,0.463,0.266,0.477,0.441,0.437,0.211,0.183,east-northeast,13.9,Yes
2015/09/09,08:50,0.463,0.268,0.480,0.440,0.438,0.212,0.181,northeast,12.6,Yes
2015/09/09,09:00,0.458,0.267,0.474,0.443,0.441,0.211,0.182,east-northeast,11.5,Yes
2015/09/09,09:10,0.464,0.266,0.479,0.437,0.434,0.211,0.181,east-northeast,11.8,Yes
2015/09/09,09:20,0.463,0.269,0.478,0.443,0.441,0.212,0.181,east-northeast,11.4,Yes
2015/09/09,09:30,0.458,0.267,0.473,0.441,0.439,0.211,0.183,east-northeast,11.5,Yes
2015/09/09,09:40,0.463,0.268,0.478,0.434,0.435,0.211,0.181,east-northeast,11.3,Yes
2015/09/09,09:50,0.460,0.269,0.474,0.440,0.439,0.212,0.183,east-northeast,13.3,Yes
2015/09/09,10:00,0.459,0.266,0.472,0.439,0.437,0.211,0.182,east-northeast,12.4,Yes
2015/09/09,10:10,0.463,0.268,0.478,0.435,0.435,0.212,0.181,east-northeast,13.4,Yes
2015/09/09,10:20,0.457,0.266,0.472,0.439,0.440,0.211,0.183,east-northeast,12.8,Yes
2015/09/09,10:30,0.455,0.265,0.469,0.436,0.435,0.210,0.181,east,11.4,Yes
2015/09/09,10:40,0.459,0.268,0.474,0.432,0.435,0.210,0.181,east,12.1,Yes
2015/09/09,10:50,0.454,0.264,0.468,0.436,0.439,0.210,0.182,east-northeast,8.5,Yes
2015/09/09,11:00,0.452,0.265,0.464,0.426,0.432,0.209,0.178,east,7.7,Yes
2015/09/09,11:10,0.454,0.266,0.465,0.420,0.432,0.209,0.179,east,10.1,Yes
2015/09/09,11:20,0.449,0.264,0.461,0.428,0.436,0.208,0.179,east,11.3,Yes
2015/09/09,11:30,0.455,0.266,0.462,0.425,0.430,0.209,0.178,east,11.8,Yes
2015/09/09,11:40,0.458,0.268,0.471,0.427,0.437,0.209,0.182,east,12.7,Yes
2015/09/09,11:50,0.453,0.264,0.467,0.436,0.439,0.208,0.182,east,12.7,Yes
2015/09/09,12:00,0.459,0.266,0.469,0.433,0.435,0.210,0.181,east,12.5,Yes
2015/09/09,12:10,0.461,0.268,0.477,0.432,0.436,0.210,0.182,east,12.0,Yes
2015/09/09,12:20,0.458,0.267,0.473,0.439,0.441,0.210,0.181,east,10.6,Yes
2015/09/09,12:30,0.460,0.267,0.473,0.436,0.437,0.211,0.181,east,9.6,Yes
2015/09/09,12:40,0.462,0.268,0.479,0.434,0.434,0.211,0.183,east,10.8,No
2015/09/09,12:50,0.459,0.268,0.475,0.440,0.441,0.210,0.182,east,10.0,Yes
2015/09/09,13:00,0.460,0.266,0.472,0.441,0.436,0.210,0.180,east,10.7,No
2015/09/09,13:10,0.464,0.269,0.478,0.436,0.433,0.211,0.182,east,9.8,No
2015/09/09,13:20,0.461,0.268,0.478,0.439,0.441,0.212,0.182,east,9.6,No
2015/09/09,13:30,0.457,0.265,0.472,0.442,0.439,0.210,0.181,east,10.6,No
2015/09/09,13:40,0.462,0.268,0.476,0.439,0.435,0.211,0.183,east,9.5,No
2015/09/09,13:50,0.466,0.269,0.480,0.436,0.436,0.213,0.184,east,10.7,Yes
2015/09/09,14:00,0.461,0.268,0.476,0.443,0.443,0.212,0.183,east,11.5,Yes
2015/09/09,14:10,0.459,0.267,0.474,0.444,0.440,0.212,0.181,east,11.4,No
2015/09/09,14:20,0.468,0.270,0.483,0.437,0.433,0.211,0.183,east,12.9,No
2015/09/09,14:30,0.465,0.270,0.479,0.440,0.442,0.212,0.183,east,11.8,No
2015/09/09,14:40,0.460,0.267,0.475,0.444,0.441,0.211,0.182,east,11.4,No
2015/09/09,14:50,0.465,0.269,0.479,0.441,0.434,0.212,0.183,east,11.5,Yes
2015/09/09,15:00,0.465,0.270,0.482,0.439,0.439,0.213,0.184,east,11.1,Yes
2015/09/09,15:10,0.463,0.268,0.478,0.444,0.441,0.212,0.181,east,11.3,Yes
2015/09/09,15:20,0.461,0.268,0.476,0.443,0.434,0.212,0.183,east,9.0,Yes
2015/09/09,15:30,0.467,0.271,0.482,0.437,0.436,0.211,0.182,east,7.8,Yes
2015/09/09,15:40,0.464,0.269,0.480,0.444,0.442,0.211,0.182,east,8.7,Yes
2015/09/09,15:50,0.460,0.268,0.476,0.444,0.438,0.212,0.184,east,8.2,Yes
2015/09/09,16:00,0.466,0.272,0.482,0.437,0.437,0.212,0.183,east,8.5,No
2015/09/09,16:10,0.466,0.269,0.480,0.442,0.442,0.212,0.182,east,11.8,No
2015/09/09,16:20,0.460,0.267,0.476,0.444,0.439,0.213,0.185,east,11.8,No
2015/09/09,16:30,0.465,0.271,0.483,0.441,0.436,0.212,0.183,east,11.0,No
2015/09/09,16:40,0.467,0.270,0.481,0.441,0.444,0.212,0.183,east,10.8,No
2015/09/09,16:50,0.464,0.267,0.478,0.445,0.439,0.212,0.184,east,10.1,No
2015/09/09,17:00,0.464,0.270,0.481,0.442,0.436,0.213,0.182,east,10.1,No
2015/09/09,17:10,0.468,0.271,0.483,0.440,0.441,0.214,0.184,east,10.1,No
2015/09/09,17:20,0.465,0.267,0.479,0.445,0.441,0.213,0.184,east,10.3,No
2015/09/09,17:30,0.462,0.270,0.477,0.444,0.434,0.214,0.183,east,10.2,No
2015/09/09,17:40,0.470,0.271,0.482,0.440,0.441,0.212,0.183,east,11.0,No
2015/09/09,17:50,0.465,0.268,0.481,0.447,0.441,0.213,0.185,east,10.8,No
2015/09/09,18:00,0.463,0.271,0.478,0.446,0.435,0.214,0.184,east,11.2,No
2015/09/09,18:10,0.467,0.271,0.484,0.440,0.441,0.213,0.183,east,12.5,No
2015/09/09,18:20,0.466,0.268,0.482,0.446,0.444,0.213,0.184,east,12.1,No
2015/09/09,18:30,0.465,0.271,0.478,0.446,0.439,0.213,0.185,east,11.6,No
2015/09/09,18:40,0.466,0.272,0.486,0.441,0.440,0.213,0.183,east,12.3,No
2015/09/09,18:50,0.468,0.269,0.483,0.443,0.443,0.213,0.185,east,11.5,Yes
2015/09/09,19:00,0.464,0.270,0.478,0.447,0.437,0.213,0.183,east-southeast,10.7,No
2015/09/09,19:10,0.467,0.271,0.485,0.442,0.441,0.213,0.185,east-southeast,11.8,No
2015/09/09,19:20,0.468,0.269,0.485,0.443,0.442,0.214,0.184,east-southeast,11.5,No
2015/09/09,19:30,0.466,0.270,0.478,0.447,0.439,0.214,0.183,east-southeast,11.9,No
2015/09/09,19:40,0.465,0.270,0.485,0.443,0.439,0.213,0.184,east-southeast,11.5,Yes
2015/09/09,19:50,0.467,0.268,0.479,0.440,0.441,0.212,0.183,east-southeast,8.9,Yes
2015/09/09,20:00,0.460,0.267,0.471,0.437,0.433,0.211,0.181,east-southeast,9.8,Yes
2015/09/09,20:10,0.462,0.268,0.478,0.436,0.435,0.211,0.183,east-southeast,9.3,Yes
2015/09/09,20:20,0.467,0.266,0.481,0.436,0.441,0.211,0.182,east-southeast,10.7,No
2015/09/09,20:30,0.463,0.269,0.473,0.442,0.435,0.213,0.181,east,11.8,Yes
2015/09/09,20:40,0.462,0.270,0.478,0.438,0.438,0.211,0.184,east,11.5,No
2015/09/09,20:50,0.466,0.267,0.479,0.436,0.442,0.213,0.183,east-southeast,11.3,No
2015/09/09,21:00,0.464,0.270,0.476,0.445,0.438,0.213,0.183,east-southeast,10.6,Yes
2015/09/09,21:10,0.462,0.269,0.478,0.440,0.436,0.212,0.184,east-southeast,9.6,Yes
2015/09/09,21:20,0.467,0.268,0.481,0.438,0.440,0.212,0.182,east-southeast,9.5,Yes
2015/09/09,21:30,0.463,0.269,0.475,0.442,0.437,0.213,0.182,east-southeast,9.3,Yes
2015/09/09,21:40,0.460,0.270,0.476,0.438,0.438,0.211,0.184,east-southeast,10.1,Yes
2015/09/09,21:50,0.466,0.269,0.480,0.437,0.441,0.212,0.182,east-southeast,11.4,No
2015/09/09,22:00,0.462,0.269,0.475,0.445,0.437,0.213,0.183,east-southeast,10.7,Yes
2015/09/09,22:10,0.461,0.269,0.478,0.440,0.438,0.212,0.184,east-southeast,11.5,Yes
2015/09/09,22:20,0.466,0.267,0.479,0.436,0.440,0.212,0.181,east-southeast,12.4,Yes
2015/09/09,22:30,0.461,0.270,0.475,0.443,0.436,0.212,0.182,east-southeast,10.9,Yes
2015/09/09,22:40,0.454,0.265,0.470,0.431,0.432,0.209,0.181,east-southeast,10.7,Yes
2015/09/09,22:50,0.460,0.265,0.472,0.427,0.436,0.210,0.179,east-southeast,9.5,Yes
2015/09/09,23:00,0.458,0.267,0.468,0.434,0.434,0.211,0.182,east-southeast,8.6,Yes
2015/09/09,23:10,0.456,0.267,0.473,0.435,0.438,0.211,0.181,east-southeast,9.9,Yes
2015/09/09,23:20,0.463,0.267,0.479,0.432,0.439,0.212,0.182,east-southeast,10.4,No
2015/09/09,23:30,0.461,0.270,0.475,0.440,0.436,0.212,0.182,east-southeast,12.1,No
2015/09/09,23:40,0.457,0.268,0.473,0.438,0.437,0.211,0.182,east-southeast,12.9,No
2015/09/09,23:50,0.465,0.267,0.480,0.435,0.439,0.211,0.181,east-southeast,11.6,Yes
